Weather History for TGPY - December, 2012

Change the Weather History Date:

Tuesday, December 18, 2012

  Actual Average Record
Temperature  
Mean Temperature 86 °F -  
Max Temperature 98 °F 83 °F 98 °F (2012)
Min Temperature 75 °F 73 °F 73 °F (2000)
Cooling Degree Days 22    
Growing Degree Days 36 (Base 50)    
Moisture  
Dew Point 75 °F    
Average Humidity 78    
Maximum Humidity 94    
Minimum Humidity 38    
Precipitation  
Precipitation 0.00 in - - ()
Sea Level Pressure  
Sea Level Pressure 29.89 in    
Wind  
Wind Speed 7 mph ()    
Max Wind Speed 20 mph    
Max Gust Speed 32 mph    
Visibility 7.5 miles    
Events Rain    
Averages and records for this station are not official NWS values.
T = Trace of Precipitation, MM = Missing Value Source: Averaged Metar Reports

Daily Weather History Graph

Daily Weather History Graph

Search for Another Location

Airport or City:

Trip Planner

Search our weather history database for the weather conditions in past years. The results will help you decide how hot, cold, wet, or windy it might be!

Date:

Astronomy

Dec. 18, 2012 Rise Set
Actual Time 6:21 AM AST 5:46 PM AST
Civil Twilight 5:58 AM AST 6:09 PM AST
Nautical Twilight 5:31 AM AST 6:36 PM AST
Astronomical Twilight 5:05 AM AST 7:02 PM AST
Moon 10:51 AM AST (12/18) 11:09 PM AST (12/18)
Length of Visible Light 12h 11m
Length of Day
11h 25m
Waxing Crescent, 34% of the Moon is Illuminated
Dec 18
Waxing Crescent
Dec 20
First Quarter
Dec 28
Full
Jan 4
Last Quarter
Jan 11
New

Hourly Weather History & Observations

Time (AST) Temp. Heat Index Dew Point Humidity Pressure Visibility Wind Dir Wind Speed Gust Speed Precip Events Conditions
12:00 AM 77.0 °F - 73.4 °F 89% 29.89 in 6.2 mi Calm Calm - N/A   Partly Cloudy
1:00 AM 78.8 °F - 73.4 °F 83% 29.86 in 6.2 mi ENE 5.8 mph - N/A   Partly Cloudy
2:00 AM 80 °F - 73 °F 75% 29.86 in 16 mi ENE 5.8 mph - -   Scattered Clouds
2:00 AM 80.6 °F 85.4 °F 73.4 °F 79% 29.86 in 6.2 mi ENE 9.2 mph - N/A   Partly Cloudy
3:00 AM 78.8 °F - 73.4 °F 83% 29.83 in 6.2 mi Calm Calm - N/A   Partly Cloudy
4:00 AM 78.8 °F - 73.4 °F 83% 29.83 in 6.2 mi Calm Calm - N/A   Partly Cloudy
5:00 AM 78 °F - 74 °F 84% 29.88 in 16 mi Calm Calm - -   Scattered Clouds
5:00 AM 78.8 °F - 73.4 °F 83% 29.86 in 6.2 mi Calm Calm - N/A   Partly Cloudy
6:00 AM 78.8 °F - 73.4 °F 83% 29.89 in 6.2 mi East 5.8 mph - N/A   Mostly Cloudy
7:00 AM 80.6 °F 86.2 °F 75.2 °F 84% 29.89 in 6.2 mi ENE 11.5 mph - N/A Rain Light Rain Showers
8:00 AM 80 °F - 76 °F 84% 29.93 in 7 mi East 5.8 mph - - Rain Light Rain Showers
8:00 AM 80.6 °F 86.2 °F 75.2 °F 84% 29.92 in 6.2 mi East 5.8 mph - N/A Rain Light Rain Showers
9:00 AM 82.4 °F 90.9 °F 77.0 °F 84% 29.95 in 6.2 mi East 17.3 mph - N/A Rain Light Rain Showers
10:00 AM 86.0 °F 96.9 °F 77.0 °F 74% 29.95 in 6.2 mi ENE 11.5 mph - N/A   Mostly Cloudy
11:00 AM 85 °F - 76 °F 69% 29.94 in 9 mi East 17.3 mph - -   Mostly Cloudy
11:00 AM 86.0 °F 96.9 °F 77.0 °F 74% 29.92 in 6.2 mi East 17.3 mph - N/A   Mostly Cloudy
12:00 PM 86.0 °F 95.1 °F 75.2 °F 70% 29.92 in 6.2 mi East 19.6 mph 32.2 mph N/A   Scattered Clouds
1:00 PM 86.0 °F 95.1 °F 75.2 °F 70% 29.89 in 6.2 mi East 17.3 mph - N/A   Scattered Clouds
2:00 PM 85 °F - 75 °F 64% 29.88 in 11 mi East 16.1 mph - -   Partly Cloudy
2:00 PM 84.2 °F 92.3 °F 75.2 °F 74% 29.89 in 6.2 mi East 16.1 mph - N/A   Mostly Cloudy
3:00 PM 84.2 °F 92.3 °F 75.2 °F 74% 29.86 in 6.2 mi East 17.3 mph - N/A   Scattered Clouds
4:00 PM 84.2 °F 92.3 °F 75.2 °F 74% 29.86 in 6.2 mi East 17.3 mph - N/A   Scattered Clouds
5:00 PM 82 °F - 74 °F 70% 29.86 in 14 mi East 13.8 mph - -   Widespread Dust
5:00 PM 82.4 °F 88.2 °F 73.4 °F 74% 29.86 in 6.2 mi East 13.8 mph - N/A   Scattered Clouds
6:00 PM 80.6 °F 86.2 °F 75.2 °F 84% 29.86 in 6.2 mi East 10.4 mph - N/A   Mostly Cloudy
7:00 PM 80.6 °F 86.2 °F 75.2 °F 84% 29.86 in 6.2 mi East 8.1 mph - N/A   Scattered Clouds
8:00 PM 98 °F - 74 °F 38% 29.89 in 12 mi East 10.4 mph - -   Widespread Dust
8:00 PM 80.6 °F 86.2 °F 75.2 °F 84% 29.89 in 6.2 mi East 10.4 mph - N/A   Scattered Clouds
9:00 PM 80.6 °F 86.2 °F 75.2 °F 84% 29.89 in 6.2 mi East 11.5 mph - N/A   Scattered Clouds
10:00 PM 78.8 °F - 77.0 °F 94% 29.89 in 6.2 mi East 11.5 mph - N/A   Partly Cloudy
11:00 PM 78.8 °F - 75.2 °F 89% 29.89 in 6.2 mi East 9.2 mph - N/A   Partly Cloudy